Location: White Plains
(41.0340°N, 73.7629°W)
Time: 20:26:14
(UTC-05:00)

LightSail 2 - Visible Passes

Search period start: 18 February 2020 00:00
Search period end: 28 February 2020 00:00
Orbit: 700 x 722 km, 24.0° (Epoch: 18 February)

Date Brightness Start Highest point End Pass type
(mag) Time Alt. Az. Time Alt. Az. Time Alt. Az.
18 Feb 7.6 06:05:21 10° SSW 06:06:55 11° S 06:08:27 10° SSE visible
19 Feb 7.5 05:06:50 10° SSW 05:08:27 11° S 05:10:03 10° SSE visible
20 Feb 7.7 04:11:10 10° SSE 04:11:10 10° SSE 04:11:18 10° SSE visible
20 Feb 7.6 05:54:04 10° SSW 05:54:31 10° S 05:54:58 10° S visible
21 Feb 7.4 04:54:58 10° SSW 04:56:03 11° S 04:57:24 10° S visible
